Year,Month,Day,Hour,Minute,Value (Times are PST for temperature in C)
2008,07,20,00,00,12.10
2008,07,20,00,01,12.00
2008,07,20,00,02,12.10
2008,07,20,00,03,12.10
2008,07,20,00,04,12.10
2008,07,20,00,05,12.00
2008,07,20,00,06,12.00
2008,07,20,00,07,12.00
2008,07,20,00,08,12.00
2008,07,20,00,09,12.00
2008,07,20,00,10,11.90
2008,07,20,00,11,11.90
2008,07,20,00,12,11.90
2008,07,20,01,02,11.60
2008,07,20,01,03,11.60
2008,07,20,01,04,11.70
2008,07,20,01,05,11.70
2008,07,20,01,06,11.60
2008,07,20,01,07,11.60
2008,07,20,01,08,11.60
2008,07,20,01,09,11.60
2008,07,20,01,10,11.60
2008,07,20,01,11,11.60
2008,07,20,01,12,11.60
2008,07,20,01,13,11.60
2008,07,20,01,14,11.60
2008,07,20,01,15,11.60
2008,07,20,01,16,11.60
2008,07,20,01,17,11.60
2008,07,20,01,18,11.60
2008,07,20,01,19,11.60
2008,07,20,01,20,11.50
2008,07,20,01,21,11.50
2008,07,20,01,22,11.50
2008,07,20,01,23,11.50
2008,07,20,01,24,11.40
2008,07,20,01,25,11.40
2008,07,20,01,26,11.40
2008,07,20,01,27,11.40
2008,07,20,01,28,11.40
2008,07,20,01,29,11.40
2008,07,20,01,30,11.40
2008,07,20,01,31,11.30
2008,07,20,01,32,11.30
2008,07,20,01,33,11.30
2008,07,20,01,34,11.30
2008,07,20,01,35,11.30
2008,07,20,01,36,11.30
2008,07,20,01,37,11.30
2008,07,20,01,38,11.30
2008,07,20,01,39,11.30
2008,07,20,01,40,11.30
2008,07,20,01,41,11.20
2008,07,20,01,42,11.20
2008,07,20,01,43,11.20
2008,07,20,01,44,11.20
2008,07,20,01,45,11.20
2008,07,20,01,46,11.20
2008,07,20,01,47,11.20
2008,07,20,01,48,11.10
2008,07,20,01,49,11.10
2008,07,20,01,50,11.10
2008,07,20,01,51,11.10
2008,07,20,01,52,11.10
2008,07,20,01,53,11.10
2008,07,20,01,54,11.10
2008,07,20,01,55,11.00
2008,07,20,01,56,11.00
2008,07,20,01,57,11.00
2008,07,20,01,58,11.00
2008,07,20,01,59,11.00
2008,07,20,02,00,11.00
2008,07,20,02,01,11.00
2008,07,20,02,02,11.00
2008,07,20,02,03,11.00
2008,07,20,02,04,11.00
2008,07,20,02,05,11.00
2008,07,20,02,06,11.00
2008,07,20,02,07,11.00
2008,07,20,02,08,11.00
2008,07,20,02,09,11.00
2008,07,20,02,10,11.00
2008,07,20,02,11,11.00
2008,07,20,02,12,11.00
2008,07,20,02,13,11.10
2008,07,20,02,14,11.10
2008,07,20,02,15,11.10
2008,07,20,02,16,11.10
2008,07,20,02,17,11.00
2008,07,20,02,18,11.00
2008,07,20,02,19,11.00
2008,07,20,02,20,11.00
2008,07,20,02,21,11.00
2008,07,20,02,22,11.00
2008,07,20,02,23,11.00
2008,07,20,02,24,11.00
2008,07,20,02,25,11.00
2008,07,20,02,26,11.00
2008,07,20,02,27,11.00
2008,07,20,02,28,11.00
2008,07,20,02,29,11.00
2008,07,20,02,30,10.90
2008,07,20,02,31,10.90
2008,07,20,02,32,10.90
2008,07,20,02,33,10.90
2008,07,20,02,34,10.90
2008,07,20,02,35,10.90
2008,07,20,02,36,10.80
2008,07,20,02,37,10.80
2008,07,20,02,38,10.80
2008,07,20,02,39,10.80
2008,07,20,02,40,10.80
2008,07,20,02,41,10.80
2008,07,20,02,42,10.80
2008,07,20,02,43,10.80
2008,07,20,02,44,10.80
2008,07,20,02,45,10.80
2008,07,20,02,46,10.80
2008,07,20,02,47,10.80
2008,07,20,02,48,10.80
2008,07,20,02,49,10.80
2008,07,20,02,50,10.80
2008,07,20,02,51,10.80
2008,07,20,02,52,10.80
2008,07,20,02,53,10.80
2008,07,20,02,54,10.80
2008,07,20,02,55,10.80
2008,07,20,02,56,10.80
2008,07,20,02,57,10.80
2008,07,20,02,58,10.80
2008,07,20,02,59,10.80
2008,07,20,03,00,10.80
2008,07,20,03,01,10.80
2008,07,20,03,02,10.80
2008,07,20,03,03,10.80
2008,07,20,03,04,10.80
2008,07,20,03,05,10.80
2008,07,20,03,06,10.70
2008,07,20,03,07,10.70
2008,07,20,03,08,10.70
2008,07,20,03,09,10.70
2008,07,20,03,10,10.70
2008,07,20,03,11,10.70
2008,07,20,03,12,10.60
2008,07,20,03,13,10.60
2008,07,20,03,14,10.60
2008,07,20,03,15,10.60
2008,07,20,03,16,10.60
2008,07,20,03,17,10.50
2008,07,20,03,18,10.50
2008,07,20,03,19,10.50
2008,07,20,03,20,10.50
2008,07,20,03,21,10.40
2008,07,20,03,22,10.40
2008,07,20,03,23,10.40
2008,07,20,03,24,10.40
2008,07,20,03,25,10.30
2008,07,20,03,26,10.30
2008,07,20,03,27,10.30
2008,07,20,03,28,10.30
2008,07,20,03,29,10.30
2008,07,20,03,30,10.30
2008,07,20,03,31,10.20
2008,07,20,03,32,10.20
2008,07,20,03,33,10.20
2008,07,20,03,34,10.20
2008,07,20,03,35,10.20
2008,07,20,03,36,10.20
2008,07,20,03,37,10.10
2008,07,20,03,38,10.10
2008,07,20,03,39,10.10
2008,07,20,03,40,10.10
2008,07,20,03,41,10.10
2008,07,20,03,42,10.10
2008,07,20,03,43,10.10
2008,07,20,03,44,10.10
2008,07,20,03,45,10.10
2008,07,20,03,46,10.10
2008,07,20,03,47,10.10
2008,07,20,03,48,10.10
2008,07,20,03,49,10.10
2008,07,20,03,50,10.10
2008,07,20,03,51,10.10
2008,07,20,03,52,10.10
2008,07,20,03,53,10.10
2008,07,20,03,54,10.10
2008,07,20,03,55,10.10
2008,07,20,03,56,10.10
2008,07,20,03,57,10.10
2008,07,20,03,58,10.10
2008,07,20,03,59,10.10
2008,07,20,04,00,10.10
2008,07,20,04,01,10.10
2008,07,20,04,02,10.10
2008,07,20,04,03,10.10
2008,07,20,04,04,10.10
2008,07,20,04,05,10.10
2008,07,20,04,06,10.10
2008,07,20,04,07,10.10
2008,07,20,04,08,10.10
2008,07,20,04,09,10.10
2008,07,20,04,10,10.10
2008,07,20,04,11,10.10
2008,07,20,04,12,10.10
2008,07,20,04,13,10.10
2008,07,20,04,14,10.20
2008,07,20,04,15,10.20
2008,07,20,04,16,10.20
2008,07,20,04,17,10.20
2008,07,20,04,18,10.10
2008,07,20,04,19,10.10
2008,07,20,04,20,10.10
2008,07,20,04,21,10.10
2008,07,20,04,22,10.10
2008,07,20,04,23,10.10
2008,07,20,04,24,10.10
2008,07,20,04,25,10.00
2008,07,20,04,26,10.00
2008,07,20,04,27,10.00
2008,07,20,04,28,9.90
2008,07,20,04,29,9.90
2008,07,20,04,30,9.90
2008,07,20,04,31,9.90
2008,07,20,04,32,9.90
2008,07,20,04,33,9.80
2008,07,20,04,34,9.80
2008,07,20,04,35,9.80
2008,07,20,04,36,9.80
2008,07,20,04,37,9.80
2008,07,20,04,38,9.80
2008,07,20,04,39,9.80
2008,07,20,04,40,9.80
2008,07,20,04,41,9.80
2008,07,20,04,42,9.80
2008,07,20,04,43,9.80
2008,07,20,04,44,9.80
2008,07,20,04,45,9.70
2008,07,20,04,46,9.70
2008,07,20,04,47,9.70
2008,07,20,04,48,9.70
2008,07,20,04,49,9.70
2008,07,20,04,50,9.70
2008,07,20,04,51,9.70
2008,07,20,04,52,9.70
2008,07,20,04,53,9.70
2008,07,20,04,54,9.70
2008,07,20,04,55,9.60
2008,07,20,04,56,9.60
2008,07,20,04,57,9.60
2008,07,20,04,58,9.60
2008,07,20,04,59,9.60
2008,07,20,05,00,9.60
2008,07,20,05,01,9.60
2008,07,20,05,02,9.60
2008,07,20,05,03,9.60
2008,07,20,05,04,9.60
2008,07,20,05,05,9.50
2008,07,20,05,06,9.50
2008,07,20,05,07,9.50
2008,07,20,05,08,9.50
2008,07,20,05,09,9.50
2008,07,20,05,10,9.40
2008,07,20,05,11,9.40
2008,07,20,05,12,9.40
2008,07,20,05,13,9.40
2008,07,20,05,14,9.40
2008,07,20,05,15,9.40
2008,07,20,05,16,9.40
2008,07,20,05,17,9.40
2008,07,20,05,18,9.40
2008,07,20,05,19,9.30
2008,07,20,05,20,9.30
2008,07,20,05,21,9.30
2008,07,20,05,22,9.30
2008,07,20,05,23,9.30
2008,07,20,05,24,9.20
2008,07,20,05,25,9.20
2008,07,20,05,26,9.20
2008,07,20,05,27,9.20
2008,07,20,05,28,9.20
2008,07,20,05,29,9.10
2008,07,20,05,30,9.10
2008,07,20,05,31,9.10
2008,07,20,05,32,9.10
2008,07,20,05,33,9.10
2008,07,20,05,34,9.10
2008,07,20,05,35,9.10
2008,07,20,05,36,9.10
2008,07,20,05,37,9.10
2008,07,20,05,38,9.10
2008,07,20,05,39,9.10
2008,07,20,05,40,9.10
2008,07,20,05,41,9.10
2008,07,20,05,42,9.10
2008,07,20,05,43,9.10
2008,07,20,05,44,9.10
2008,07,20,05,45,9.10
2008,07,20,05,46,9.10
2008,07,20,05,47,9.10
2008,07,20,05,48,9.10
2008,07,20,05,49,9.10
2008,07,20,05,50,9.10
2008,07,20,05,51,9.20
2008,07,20,05,52,9.20
2008,07,20,05,53,9.20
2008,07,20,05,54,9.20
2008,07,20,05,55,9.20
2008,07,20,05,56,9.20
2008,07,20,05,57,9.20
2008,07,20,05,58,9.20
2008,07,20,05,59,9.20
2008,07,20,06,00,9.20
2008,07,20,06,01,9.20
2008,07,20,06,02,9.20
2008,07,20,06,03,9.30
2008,07,20,06,04,9.30
2008,07,20,06,05,9.30
2008,07,20,06,06,9.30
2008,07,20,06,07,9.30
2008,07,20,06,08,9.30
2008,07,20,06,09,9.30
2008,07,20,06,10,9.30
2008,07,20,06,11,9.30
2008,07,20,06,12,9.40
2008,07,20,06,13,9.40
2008,07,20,06,14,9.40
2008,07,20,06,15,9.40
2008,07,20,06,16,9.50
2008,07,20,06,17,9.50
2008,07,20,06,18,9.60
2008,07,20,06,19,9.60
2008,07,20,06,20,9.60
2008,07,20,06,21,9.60
2008,07,20,06,22,9.70
2008,07,20,06,23,9.70
2008,07,20,06,24,9.70
2008,07,20,06,25,9.70
2008,07,20,06,26,9.70
2008,07,20,06,27,9.70
2008,07,20,06,28,9.80
2008,07,20,06,29,9.80
2008,07,20,06,30,9.80
2008,07,20,06,31,9.80
2008,07,20,06,32,9.90
2008,07,20,06,33,9.90
2008,07,20,06,34,10.00
2008,07,20,06,35,10.00
2008,07,20,06,36,10.00
2008,07,20,06,37,10.10
2008,07,20,06,38,10.10
2008,07,20,06,39,10.10
2008,07,20,06,40,10.10
2008,07,20,06,41,10.20
2008,07,20,06,42,10.20
2008,07,20,06,43,10.20
2008,07,20,06,44,10.20
2008,07,20,06,45,10.20
2008,07,20,06,46,10.30
2008,07,20,06,47,10.30
2008,07,20,06,48,10.30
2008,07,20,06,49,10.30
2008,07,20,06,50,10.40
2008,07,20,06,51,10.40
2008,07,20,06,52,10.40
2008,07,20,06,53,10.40
2008,07,20,06,54,10.50
2008,07,20,06,55,10.50
2008,07,20,06,56,10.60
2008,07,20,06,57,10.60
2008,07,20,06,58,10.70
2008,07,20,06,59,10.70
2008,07,20,07,00,10.70
2008,07,20,07,01,10.80
2008,07,20,07,02,10.80
2008,07,20,07,03,10.90
2008,07,20,07,04,10.90
2008,07,20,07,05,11.00
2008,07,20,07,06,11.10
2008,07,20,07,07,11.10
2008,07,20,07,08,11.20
2008,07,20,07,09,11.30
2008,07,20,07,10,11.30
2008,07,20,07,11,11.40
2008,07,20,07,12,11.40
2008,07,20,07,13,11.50
2008,07,20,07,14,11.60
2008,07,20,07,15,11.60
2008,07,20,07,16,11.60
2008,07,20,07,17,11.70
2008,07,20,07,18,11.70
2008,07,20,07,19,11.70
2008,07,20,07,20,11.80
2008,07,20,07,21,11.80
2008,07,20,07,22,11.90
2008,07,20,07,23,12.00
2008,07,20,07,24,12.00
2008,07,20,07,25,12.10
2008,07,20,07,26,12.10
2008,07,20,07,27,12.20
2008,07,20,07,28,12.20
2008,07,20,07,29,12.30
2008,07,20,07,30,12.30
2008,07,20,07,31,12.40
2008,07,20,07,32,12.50
2008,07,20,07,33,12.50
2008,07,20,07,34,12.60
2008,07,20,07,35,12.60
2008,07,20,07,36,12.70
2008,07,20,07,37,12.80
2008,07,20,07,38,12.80
2008,07,20,07,39,12.90
2008,07,20,07,40,13.00
2008,07,20,07,41,13.00
2008,07,20,07,42,13.10
2008,07,20,07,43,13.10
2008,07,20,07,44,13.20
2008,07,20,07,45,13.20
2008,07,20,07,46,13.20
2008,07,20,07,47,13.30
2008,07,20,07,48,13.30
2008,07,20,07,49,13.40
2008,07,20,07,50,13.40
2008,07,20,07,51,13.40
2008,07,20,07,52,13.50
2008,07,20,07,53,13.50
2008,07,20,07,54,13.60
2008,07,20,07,55,13.60
2008,07,20,07,56,13.60
2008,07,20,07,57,13.60
2008,07,20,07,58,13.70
2008,07,20,07,59,13.70
2008,07,20,08,00,13.80
2008,07,20,08,01,13.80
2008,07,20,08,02,13.90
2008,07,20,08,03,13.90
2008,07,20,08,04,14.00
2008,07,20,08,05,14.10
2008,07,20,08,06,14.20
2008,07,20,08,07,14.20
2008,07,20,08,08,14.30
2008,07,20,08,09,14.40
2008,07,20,08,10,14.40
2008,07,20,08,11,14.50
2008,07,20,08,12,14.50
2008,07,20,08,13,14.60
2008,07,20,08,14,14.60
2008,07,20,08,15,14.70
2008,07,20,08,16,14.70
2008,07,20,08,17,14.90
2008,07,20,08,18,15.00
2008,07,20,08,19,15.00
2008,07,20,08,20,15.00
2008,07,20,08,21,15.00
2008,07,20,08,22,15.00
2008,07,20,08,23,15.00
2008,07,20,08,24,15.00
2008,07,20,08,25,15.00
2008,07,20,08,26,15.00
2008,07,20,08,27,15.00
2008,07,20,08,28,15.00
2008,07,20,08,29,15.10
2008,07,20,08,30,15.10
2008,07,20,08,31,15.10
2008,07,20,08,32,15.20
2008,07,20,08,33,15.20
2008,07,20,08,34,15.20
2008,07,20,08,35,15.30
2008,07,20,08,36,15.30
2008,07,20,08,37,15.30
2008,07,20,08,38,15.30
2008,07,20,08,39,15.40
2008,07,20,08,40,15.40
2008,07,20,08,41,15.40
2008,07,20,08,42,15.50
2008,07,20,08,43,15.50
2008,07,20,08,44,15.50
2008,07,20,08,45,15.50
2008,07,20,08,46,15.50
2008,07,20,08,47,15.50
2008,07,20,08,48,15.50
2008,07,20,08,49,15.50
2008,07,20,08,50,15.60
2008,07,20,08,51,15.60
2008,07,20,08,52,15.60
2008,07,20,08,53,15.60
2008,07,20,08,54,15.70
2008,07,20,08,55,15.70
2008,07,20,08,56,15.70
2008,07,20,08,57,15.80
2008,07,20,08,58,15.80
2008,07,20,08,59,15.90
2008,07,20,09,00,16.00
2008,07,20,09,01,16.10
2008,07,20,09,02,16.20
2008,07,20,09,03,16.30
2008,07,20,09,04,16.30
2008,07,20,09,05,16.30
2008,07,20,09,06,16.30
2008,07,20,09,07,16.30
2008,07,20,09,08,16.30
2008,07,20,09,09,16.30
2008,07,20,09,10,16.30
2008,07,20,09,11,16.40
2008,07,20,09,12,16.50
2008,07,20,09,13,16.50
2008,07,20,09,14,16.60
2008,07,20,09,15,16.70
2008,07,20,09,16,16.70
2008,07,20,09,17,16.70
2008,07,20,09,18,16.70
2008,07,20,09,19,16.60
2008,07,20,09,20,16.60
2008,07,20,09,21,16.60
2008,07,20,09,22,16.60
2008,07,20,09,23,16.60
2008,07,20,09,24,16.60
2008,07,20,09,25,16.60
2008,07,20,09,26,16.60
2008,07,20,09,27,16.50
2008,07,20,09,28,16.50
2008,07,20,09,29,16.50
2008,07,20,09,30,16.60
2008,07,20,09,31,16.70
2008,07,20,09,32,16.70
2008,07,20,09,33,16.70
2008,07,20,09,34,16.80
2008,07,20,09,35,16.80
2008,07,20,09,36,16.90
2008,07,20,09,37,16.90
2008,07,20,09,38,17.00
2008,07,20,09,39,17.10
2008,07,20,09,40,17.10
2008,07,20,09,41,17.20
2008,07,20,09,42,17.20
2008,07,20,09,43,17.20
2008,07,20,09,44,17.20
2008,07,20,09,45,17.20
2008,07,20,09,46,17.20
2008,07,20,09,47,17.30
2008,07,20,09,48,17.30
2008,07,20,09,49,17.30
2008,07,20,09,50,17.30
2008,07,20,09,51,17.30
2008,07,20,09,52,17.20
2008,07,20,09,53,17.20
2008,07,20,09,54,17.30
2008,07,20,09,55,17.30
2008,07,20,09,56,17.40
2008,07,20,09,57,17.50
2008,07,20,09,58,17.60
2008,07,20,09,59,17.70
2008,07,20,10,00,17.80
2008,07,20,10,01,17.80
2008,07,20,10,02,17.90
2008,07,20,10,03,17.90
2008,07,20,10,04,18.00
2008,07,20,10,05,18.00
2008,07,20,10,06,18.10
2008,07,20,10,07,18.20
2008,07,20,10,08,18.20
2008,07,20,10,09,18.20
2008,07,20,10,10,18.20
2008,07,20,10,11,18.30
2008,07,20,10,12,18.30
2008,07,20,10,13,18.40
2008,07,20,10,14,18.60
2008,07,20,10,15,18.70
2008,07,20,10,16,18.70
2008,07,20,10,17,18.80
2008,07,20,10,18,18.80
2008,07,20,10,19,18.80
2008,07,20,10,20,18.80
2008,07,20,10,21,18.80
2008,07,20,10,22,18.80
2008,07,20,10,23,18.90
2008,07,20,10,24,18.90
2008,07,20,10,25,19.00
2008,07,20,10,26,19.00
2008,07,20,10,27,19.10
2008,07,20,10,28,19.10
2008,07,20,10,29,19.20
2008,07,20,10,30,19.20
2008,07,20,10,31,19.20
2008,07,20,10,32,19.30
2008,07,20,10,33,19.30
2008,07,20,10,34,19.30
2008,07,20,10,35,19.30
2008,07,20,10,36,19.40
2008,07,20,10,37,19.40
2008,07,20,10,38,19.40
2008,07,20,10,39,19.30
2008,07,20,10,40,19.20
2008,07,20,10,41,19.20
2008,07,20,10,42,19.20
2008,07,20,10,43,19.20
2008,07,20,10,44,19.20
2008,07,20,10,45,19.10
2008,07,20,10,46,19.20
2008,07,20,10,47,19.20
2008,07,20,10,48,19.30
2008,07,20,10,49,19.40
2008,07,20,10,50,19.50
2008,07,20,10,51,19.50
2008,07,20,10,52,19.40
2008,07,20,10,53,19.40
2008,07,20,10,54,19.40
2008,07,20,10,55,19.50
2008,07,20,10,56,19.50
2008,07,20,10,57,19.60
2008,07,20,10,58,19.70
2008,07,20,10,59,19.80
2008,07,20,11,00,19.80
2008,07,20,11,01,19.70
2008,07,20,11,02,19.70
2008,07,20,11,03,19.80
2008,07,20,11,04,19.80
2008,07,20,11,05,19.90
2008,07,20,11,06,19.80
2008,07,20,11,07,19.80
2008,07,20,11,08,19.70
2008,07,20,11,09,19.60
2008,07,20,11,10,19.60
2008,07,20,11,11,19.60
2008,07,20,11,12,19.60
2008,07,20,11,13,19.50
2008,07,20,11,14,19.40
2008,07,20,11,15,19.30
2008,07,20,11,16,19.30
2008,07,20,11,17,19.40
2008,07,20,11,18,19.50
2008,07,20,11,19,19.60
2008,07,20,11,20,19.60
2008,07,20,11,21,19.60
2008,07,20,11,22,19.60
2008,07,20,11,23,19.60
2008,07,20,11,24,19.70
2008,07,20,11,25,19.70
2008,07,20,11,26,19.80
2008,07,20,11,27,19.90
2008,07,20,11,28,20.10
2008,07,20,11,29,20.20
2008,07,20,11,30,20.30
2008,07,20,11,31,20.30
2008,07,20,11,32,20.20
2008,07,20,11,33,20.20
2008,07,20,11,34,20.20
2008,07,20,11,35,20.20
2008,07,20,11,36,20.10
2008,07,20,11,37,20.10
2008,07,20,11,38,20.10
2008,07,20,11,39,20.10
2008,07,20,11,40,20.10
2008,07,20,11,41,20.10
2008,07,20,11,42,20.20
2008,07,20,11,43,20.20
2008,07,20,11,44,20.20
2008,07,20,11,45,20.20
2008,07,20,11,46,20.10
2008,07,20,11,47,20.20
2008,07,20,11,48,20.20
2008,07,20,11,49,20.20
2008,07,20,11,50,20.30
2008,07,20,11,51,20.30
2008,07,20,11,52,20.30
2008,07,20,11,53,20.30
2008,07,20,11,54,20.50
2008,07,20,11,55,20.50
2008,07,20,11,56,20.60
2008,07,20,11,57,20.50
2008,07,20,11,58,20.50
2008,07,20,11,59,20.50
2008,07,20,12,00,20.60
2008,07,20,12,01,20.60
2008,07,20,12,02,20.60
2008,07,20,12,03,20.60
2008,07,20,12,04,20.60
2008,07,20,12,05,20.70
2008,07,20,12,06,20.60
2008,07,20,12,07,20.60
2008,07,20,12,08,20.50
2008,07,20,12,09,20.50
2008,07,20,12,10,20.60
2008,07,20,12,11,20.70
2008,07,20,12,12,20.80
2008,07,20,12,13,20.90
2008,07,20,12,14,21.00
2008,07,20,12,15,21.00
2008,07,20,12,16,21.00
2008,07,20,12,17,21.00
2008,07,20,12,18,20.90
2008,07,20,12,19,20.90
2008,07,20,12,20,21.00
2008,07,20,12,21,21.10
2008,07,20,12,22,21.10
2008,07,20,12,23,21.10
2008,07,20,12,24,21.10
2008,07,20,12,25,21.00
2008,07,20,12,26,21.10
2008,07,20,12,27,21.10
2008,07,20,12,28,21.10
2008,07,20,12,29,21.10
2008,07,20,12,30,21.20
2008,07,20,12,31,21.30
2008,07,20,12,32,21.30
2008,07,20,12,33,21.40
2008,07,20,12,34,21.50
2008,07,20,12,35,21.60
2008,07,20,12,36,21.80
2008,07,20,12,37,21.80
2008,07,20,12,38,22.00
2008,07,20,12,39,22.00
2008,07,20,12,40,22.00
2008,07,20,12,41,22.10
2008,07,20,12,42,22.20
2008,07,20,12,43,22.30
2008,07,20,12,44,22.40
2008,07,20,12,45,22.20
2008,07,20,12,46,22.10
2008,07,20,12,47,22.00
2008,07,20,12,48,21.90
2008,07,20,12,49,22.00
2008,07,20,12,50,22.10
2008,07,20,12,51,22.20
2008,07,20,12,52,22.30
2008,07,20,12,53,22.40
2008,07,20,12,54,22.60
2008,07,20,12,55,22.70
2008,07,20,12,56,22.70
2008,07,20,12,57,22.60
2008,07,20,12,58,22.50
2008,07,20,12,59,22.50
2008,07,20,13,00,22.50
2008,07,20,13,01,22.50
2008,07,20,13,02,22.50
2008,07,20,13,03,22.50
2008,07,20,13,04,22.50
2008,07,20,13,05,22.50
2008,07,20,13,06,22.50
2008,07,20,13,07,22.50
2008,07,20,13,08,22.40
2008,07,20,13,09,22.40
2008,07,20,13,10,22.30
2008,07,20,13,11,22.30
2008,07,20,13,12,22.30
2008,07,20,13,13,22.20
2008,07,20,13,14,22.30
2008,07,20,13,15,22.40
2008,07,20,13,16,22.50
2008,07,20,13,17,22.60
2008,07,20,13,18,22.60
2008,07,20,13,19,22.60
2008,07,20,13,20,22.60
2008,07,20,13,21,22.70
2008,07,20,13,22,22.80
2008,07,20,13,23,22.90
2008,07,20,13,24,22.90
2008,07,20,13,25,22.90
2008,07,20,13,26,22.90
2008,07,20,13,27,22.80
2008,07,20,13,28,22.80
2008,07,20,13,29,22.80
2008,07,20,13,30,22.80
2008,07,20,13,31,22.70
2008,07,20,13,32,22.70
2008,07,20,13,33,22.70
2008,07,20,13,34,22.70
2008,07,20,13,35,22.70
2008,07,20,13,36,22.70
2008,07,20,13,37,22.80
2008,07,20,13,38,22.80
2008,07,20,13,39,22.80
2008,07,20,13,40,22.80
2008,07,20,13,41,22.70
2008,07,20,13,42,22.70
2008,07,20,13,43,22.80
2008,07,20,13,44,23.00
2008,07,20,13,45,23.00
2008,07,20,13,46,23.10
2008,07,20,13,47,23.10
2008,07,20,13,48,23.20
2008,07,20,13,49,23.10
2008,07,20,13,50,23.10
2008,07,20,13,51,23.20
2008,07,20,13,52,23.30
2008,07,20,13,53,23.30
2008,07,20,13,54,23.20
2008,07,20,13,55,23.20
2008,07,20,13,56,23.20
2008,07,20,13,57,23.20
2008,07,20,13,58,23.00
2008,07,20,13,59,23.00
2008,07,20,14,00,23.10
2008,07,20,14,01,23.10
2008,07,20,14,02,23.10
2008,07,20,14,03,23.20
2008,07,20,14,04,23.20
2008,07,20,14,05,23.20
2008,07,20,14,06,23.30
2008,07,20,14,07,23.30
2008,07,20,14,08,23.40
2008,07,20,14,09,23.50
2008,07,20,14,10,23.60
2008,07,20,14,11,23.60
2008,07,20,14,12,23.70
2008,07,20,14,13,23.60
2008,07,20,14,14,23.60
2008,07,20,14,15,23.60
2008,07,20,14,16,23.70
2008,07,20,14,17,23.60
2008,07,20,14,18,23.60
2008,07,20,14,19,23.70
2008,07,20,14,20,23.60
2008,07,20,14,21,23.60
2008,07,20,14,22,23.60
2008,07,20,14,23,23.70
2008,07,20,14,24,23.70
2008,07,20,14,25,23.80
2008,07,20,14,26,23.80
2008,07,20,14,27,23.90
2008,07,20,14,28,23.90
2008,07,20,14,29,23.90
2008,07,20,14,30,23.90
2008,07,20,14,31,23.90
2008,07,20,14,32,23.80
2008,07,20,14,33,23.80
2008,07,20,14,34,23.80
2008,07,20,14,35,23.80
2008,07,20,14,36,23.90
2008,07,20,14,37,24.10
2008,07,20,14,38,24.20
2008,07,20,14,39,24.20
2008,07,20,14,40,24.10
2008,07,20,14,41,24.00
2008,07,20,14,42,24.00
2008,07,20,14,43,23.90
2008,07,20,14,44,24.00
2008,07,20,14,45,23.90
2008,07,20,14,46,23.80
2008,07,20,14,47,23.80
2008,07,20,14,48,23.70
2008,07,20,14,49,23.70
2008,07,20,14,50,23.60
2008,07,20,14,51,23.70
2008,07,20,14,52,23.80
2008,07,20,14,53,23.80
2008,07,20,14,54,23.70
2008,07,20,14,55,23.60
2008,07,20,14,56,23.50
2008,07,20,14,57,23.50
2008,07,20,14,58,23.50
2008,07,20,14,59,23.60
2008,07,20,15,00,23.70
2008,07,20,15,01,23.70
2008,07,20,15,02,23.80
2008,07,20,15,03,23.70
2008,07,20,15,04,23.80
2008,07,20,15,05,23.90
2008,07,20,15,06,24.00
2008,07,20,15,07,24.10
2008,07,20,15,08,24.20
2008,07,20,15,09,24.30
2008,07,20,15,10,24.30
2008,07,20,15,11,24.40
2008,07,20,15,12,24.50
2008,07,20,15,13,24.60
2008,07,20,15,14,24.50
2008,07,20,15,15,24.40
2008,07,20,15,16,24.50
2008,07,20,15,17,24.50
2008,07,20,15,18,24.60
2008,07,20,15,19,24.50
2008,07,20,15,20,24.40
2008,07,20,15,21,24.30
2008,07,20,15,22,24.20
2008,07,20,15,23,24.10
2008,07,20,15,24,24.00
2008,07,20,15,25,23.80
2008,07,20,15,26,23.90
2008,07,20,15,27,24.00
2008,07,20,15,28,24.10
2008,07,20,15,29,24.30
2008,07,20,15,30,24.40
2008,07,20,15,31,24.40
2008,07,20,15,32,24.30
2008,07,20,15,33,24.10
2008,07,20,15,34,24.20
2008,07,20,15,35,24.20
2008,07,20,15,36,24.20
2008,07,20,15,37,24.30
2008,07,20,15,38,24.30
2008,07,20,15,39,24.30
2008,07,20,15,40,24.30
2008,07,20,15,41,24.30
2008,07,20,15,42,24.30
2008,07,20,15,43,24.30
2008,07,20,15,44,24.30
2008,07,20,15,45,24.30
2008,07,20,15,46,24.30
2008,07,20,15,47,24.40
2008,07,20,15,48,24.40
2008,07,20,15,49,24.40
2008,07,20,15,50,24.50
2008,07,20,15,51,24.60
2008,07,20,15,52,24.70
2008,07,20,15,53,24.70
2008,07,20,15,54,24.60
2008,07,20,15,55,24.50
2008,07,20,15,56,24.40
2008,07,20,15,57,24.30
2008,07,20,15,58,24.30
2008,07,20,15,59,24.30
2008,07,20,16,00,24.40
2008,07,20,16,01,24.50
2008,07,20,16,02,24.50
2008,07,20,16,03,24.60
2008,07,20,16,04,24.60
2008,07,20,16,05,24.60
2008,07,20,16,06,24.60
2008,07,20,16,07,24.50
2008,07,20,16,08,24.50
2008,07,20,16,09,24.30
2008,07,20,16,10,24.20
2008,07,20,16,11,24.20
2008,07,20,16,12,24.20
2008,07,20,16,13,24.20
2008,07,20,16,14,24.20
2008,07,20,16,15,24.20
2008,07,20,16,16,24.10
2008,07,20,16,17,24.10
2008,07,20,16,18,24.10
2008,07,20,16,19,24.20
2008,07,20,16,20,24.20
2008,07,20,16,21,24.30
2008,07,20,16,22,24.30
2008,07,20,16,23,24.20
2008,07,20,16,24,24.20
2008,07,20,16,25,24.20
2008,07,20,16,26,24.30
2008,07,20,16,27,24.30
2008,07,20,16,28,24.30
2008,07,20,16,29,24.30
2008,07,20,16,30,24.30
2008,07,20,16,31,24.30
2008,07,20,16,32,24.20
2008,07,20,16,33,24.20
2008,07,20,16,34,24.30
2008,07,20,16,35,24.30
2008,07,20,16,36,24.40
2008,07,20,16,37,24.50
2008,07,20,16,38,24.50
2008,07,20,16,39,24.50
2008,07,20,16,40,24.50
2008,07,20,16,41,24.50
2008,07,20,16,42,24.60
2008,07,20,16,43,24.70
2008,07,20,16,44,24.70
2008,07,20,16,45,24.70
2008,07,20,16,46,24.60
2008,07,20,16,47,24.50
2008,07,20,16,48,24.50
2008,07,20,16,49,24.50
2008,07,20,16,50,24.40
2008,07,20,16,51,24.40
2008,07,20,16,52,24.50
2008,07,20,16,53,24.50
2008,07,20,16,54,24.60
2008,07,20,16,55,24.60
2008,07,20,16,56,24.70
2008,07,20,16,57,24.70
2008,07,20,16,58,24.80
2008,07,20,16,59,24.80
2008,07,20,17,00,24.80
2008,07,20,17,01,24.80
2008,07,20,17,02,24.80
2008,07,20,17,03,24.80
2008,07,20,17,04,24.60
2008,07,20,17,05,24.60
2008,07,20,17,06,24.60
2008,07,20,17,07,24.60
2008,07,20,17,08,24.50
2008,07,20,17,09,24.40
2008,07,20,17,10,24.30
2008,07,20,17,11,24.20
2008,07,20,17,12,24.10
2008,07,20,17,13,24.10
2008,07,20,17,14,24.10
2008,07,20,17,15,24.10
2008,07,20,17,16,24.10
2008,07,20,17,17,24.10
2008,07,20,17,18,24.10
2008,07,20,17,19,23.90
2008,07,20,17,20,23.90
2008,07,20,17,21,23.90
2008,07,20,17,22,24.00
2008,07,20,17,23,24.10
2008,07,20,17,24,24.20
2008,07,20,17,25,24.30
2008,07,20,17,26,24.40
2008,07,20,17,27,24.40
2008,07,20,17,28,24.50
2008,07,20,17,29,24.50
2008,07,20,17,30,24.60
2008,07,20,17,31,24.60
2008,07,20,17,32,24.60
2008,07,20,17,33,24.60
2008,07,20,17,34,24.60
2008,07,20,17,35,24.40
2008,07,20,17,36,24.30
2008,07,20,17,37,24.30
2008,07,20,17,38,24.20
2008,07,20,17,39,24.20
2008,07,20,17,40,24.10
2008,07,20,17,41,24.00
2008,07,20,17,42,24.00
2008,07,20,17,43,24.00
2008,07,20,17,44,23.90
2008,07,20,17,45,23.90
2008,07,20,17,46,23.80
2008,07,20,17,47,23.80
2008,07,20,17,48,23.80
2008,07,20,17,49,23.70
2008,07,20,17,50,23.60
2008,07,20,17,51,23.50
2008,07,20,17,52,23.50
2008,07,20,17,53,23.40
2008,07,20,17,54,23.20
2008,07,20,17,55,23.00
2008,07,20,17,56,22.90
2008,07,20,17,57,22.90
2008,07,20,17,58,22.90
2008,07,20,17,59,23.00
2008,07,20,18,00,23.10
2008,07,20,18,01,23.10
2008,07,20,18,02,23.10
2008,07,20,18,03,23.10
2008,07,20,18,04,23.10
2008,07,20,18,05,23.10
2008,07,20,18,06,23.10
2008,07,20,18,07,23.10
2008,07,20,18,08,23.00
2008,07,20,18,09,23.00
2008,07,20,18,10,23.00
2008,07,20,18,11,22.90
2008,07,20,18,12,22.90
2008,07,20,18,13,22.80